Weather in Plavinas

Latvia     56°36′48″N   25°42′35″E
temp.,
°C
wind,
m/s
gust,
m/s
humid.,
%
clouds,
%
prec.,
mm/h
press.,
hPa
HPBL,
m
15 may, sat
sat1500:00+9ese259924 0.0 1005113
03:00+9ese229836 0.0 100546
06:00+9ene119963 0.0 100513
09:00+15ne118458 0.0 1005414
12:00+17wnw227897 1.5 1005995
15:00+18w236657 2.7 10051228
18:00+19w44525 0.1 10051378
21:00+13wnw23825 0.1 100654
16 may, sun
sun1600:00+9nw11855 0.0 100710
03:00+8nw118844 0.0 100810
06:00+10ese118296 0.0 100828
09:00+12se2378100 0.0 1009211
12:00+16s246892 0.0 1010841
15:00+19s3453100 0.2 10091663
18:00+19s254998 0.0 10081875
21:00+14sse117719 0.0 100811
17 may, mon
mon1700:00+11se2485100 0.0 100874
03:00+11ese3119068 0.0 1007237
06:00+12ese3893100 0.3 1006279
09:00+14se41292100 0.7 1006625
12:00+14sse4119598 1.3 1006871
15:00+12w3492100 2.3 1007356
18:00+14n1278100 0.0 1007500
21:00+12n2591100 0.0 1006180
18 may, tue
tue1800:00+10n3894100 0.0 1004241
03:00+11n2691100 0.1 1002297
06:00+11nnw2593100 0.1 1001263
09:00+12nnw2492100 0.8 1000314
12:00+12nw2391100 0.4 1001426
15:00+13nw2385100 0.5 1001451
18:00+13nnw129035 0.1 1002136
21:00+11ne119431 0.1 100211
19 may, wed
wed1900:00+9s239869 0.0 100381
03:00+9wsw3698100 0.1 1003315
06:00+9w3997100 0.4 1004551
09:00+9w488894 0.4 1005658
12:00+13wsw466799 0.1 10051358
15:00+15wsw576595 0.9 10051480
18:00+13w511655 1.0 10061398
21:00+10wsw410765 1.1 1007838